Tracking 29892 objects as of 21-Nov-2024
HD Live streaming from Space Station
objects crossing your sky now

EAGLET 1

Track EAGLET 1 now!
10-day predictions
EAGLET 1 is classified as:


NORAD ID: 43790
Int'l Code: 2018-099AJ
Perigee: 546.8 km
Apogee: 565.4 km
Inclination: 97.5 °
Period: 95.6 minutes
Semi major axis: 6927 km
RCS: Unknown
Launch date: December 3, 2018
Source: (TBD)
Launch site: AIR FORCE WESTERN TEST RANGE (AFWTR)

Uplink (MHz):
Downlink (MHz): 435.200/435.800
Beacon (MHz):
Mode: 1200bps
Call sign:
Status:

Your satellite tracking list
Your tracking list is empty




NASA's NSSDC Master Catalog

Two Line Element Set (TLE):
1 43790U 18099AJ  24325.57394449  .00009068  00000-0  62745-3 0  9991
2 43790  97.5079  19.0556 0013424 153.7825 206.4084 15.05835914325783
Source of the keplerian elements: AMSAT